Regional Weather Roundup
Issued by NWS

Home | Current Version | Previous Version | Graphics & Text | Print | Product List | Glossary On
Versions: 1 2 3 4 5 6 7 8 9 10 11 12 13 14 15 16 17 18 19 20 21 22 23 24 25 26 27 28 29 30 31 32 33 34 35 36 37 38 39 40 41 42 43 44 45 46 47 48 49 50
000
ASUS43 KDTX 060310
RWRMI
MICHIGAN HOURLY REGIONAL WEATHER ROUNDUP
NATIONAL WEATHER SERVICE DETROIT/PONTIAC MI
1100 PM EDT THU MAY 05 2016

NOTE: "FAIR" INDICATES FEW OR NO CLOUDS BELOW 12,000 FEET WITH NO
SIGNIFICANT WEATHER AND/OR OBSTRUCTION TO VISIBILITY.

MIZ047>049-052>055-059>063-066>070-074>076-081>083-060400-
SOUTHEAST LOWER MICHIGAN

CITY           SKY/WX    TMP DP  RH WIND       PRES   REMARKS
ADRIAN         CLEAR     54  39  57 N6        29.92R
ALMA           CLEAR     49  45  83 CALM      29.94R
BAD AXE        CLEAR     44  39  82 CALM      29.92S
CARO           CLEAR     45  40  83 N3        29.92R
DETROIT CITY   CLEAR     53  34  48 N7        29.90R
DETROIT        PTCLDY    55  34  45 N5        29.91R
FLINT          PTCLDY    54  38  54 CALM      29.92R
GROSSE ILE     CLEAR     54  36  50 N6        29.89R
HILLSDALE      MOCLDY    53  41  65 NW7       29.93R
HOWELL         CLEAR     51  40  65 CALM      29.92R

CITY           SKY/WX    TMP DP  RH WIND       PRES   REMARKS
JACKSON        CLOUDY    53  41  63 NW5       29.93R
LAMBERTVILLE   CLEAR     49  41  74 CALM      29.91R
LANSING        MOCLDY    52  43  71 CALM      29.93R
LAPEER         FAIR      48  36  64 N3        29.91S
MASON          PTCLDY    50  45  81 CALM      29.93R
MONROE         CLEAR     52  39  61 N3        29.89R
MT. CLEMENS    CLEAR     49  36  58 N7        29.89R
PONTIAC        PTCLDY    52  36  54 N5        29.90S
PORT HOPE        N/A     45  40  82 W5        29.90S
PORT HURON     CLEAR     50  37  62 NE3       29.91R
TRI CITIES     CLEAR     50  43  77 N5        29.94R
MIDLAND        FAIR      46  41  84 CALM      29.93R
TROY           CLEAR     55  33  43 NW5       29.92S
SAGINAW HB     PTCLDY    46  43  87 N3        29.93R
$$
MIZ043>046-050>051-056>058-064>065-071>073-077>080-060400-
SOUTHWEST LOWER MICHIGAN

CITY           SKY/WX    TMP DP  RH WIND       PRES   REMARKS
BATTLE CREEK   CLEAR     51  39  63 W9        29.95R
BENTON HARBOR  CLEAR     41  38  89 CALM      29.98R
BIG RAPIDS     CLEAR     50  35  57 CALM      29.95R
COLDWATER      PTCLDY    52  43  70 CALM      29.94R
FREMONT        FAIR      46  35  67 NW3       29.96R
HOLLAND        CLEAR    N/A N/A N/A W3        29.97R
GRAND RAPIDS   PTCLDY    55  41  59 W8        29.95R
IONIA          FAIR      55  39  56 NW5       29.93R
KALAMAZOO      CLEAR     51  37  58 NW8       29.96R
LUDINGTON      CLEAR     40  37  86 CALM      29.97R
MARSHALL       PTCLDY    53  41  63 W6        29.93R
MOUNT PLEASANT CLEAR     51  42  72 CALM      29.94R
MUSKEGON       MOCLDY    49  34  56 N6        29.97R
SOUTH HAVEN    CLEAR     41  39  93 CALM      29.97S
$$
MIZ016>042-060400-
NORTHERN LOWER MICHIGAN

CITY           SKY/WX    TMP DP  RH WIND       PRES   REMARKS
ALPENA         CLEAR     50  40  68 NW5       29.94R
BEAVER ISLAND  CLEAR     41  33  75 W3        29.95R
BELLAIRE       CLEAR     40  38  89 CALM      29.96R
CADILLAC       CLEAR     42  38  84 CALM      29.95R
CHARLEVOIX     CLEAR     40  36  84 CALM      29.98R
FRANKFORT      CLEAR     41  35  78 CALM      29.96R
GAYLORD        CLEAR     47  38  71 NW3       29.94R
GRAYLING       CLEAR     44  40  87 CALM      29.96R
HARBOR SPRINGS CLEAR     40  35  82 CALM      29.95S
HOUGHTON LAKE  CLEAR     48  39  71 CALM      29.95R
MANISTEE       CLEAR     39  34  81 CALM      29.97R
OSCODA         CLEAR     46  38  76 SW5       29.92R
PELLSTON       CLEAR     41  35  79 CALM      29.95R
ROGERS CITY    PTCLDY    46  37  71 W5        29.95R
TRAVERSE CITY  CLEAR     43  38  82 CALM      29.94R
$$
MIZ007>008-015-060400-
EASTERN UPPER MICHIGAN

CITY           SKY/WX    TMP DP  RH WIND       PRES   REMARKS
KINROSS          N/A     43  36  75 CALM      29.93R
MACKINAC ISLAN CLEAR     41  36  81 W5        29.93F
NEWBERRY       CLEAR     45  37  72 CALM      29.92S
S. S. MARIE    CLEAR     40  34  79 S5        29.91S
MUNISING         N/A     55  37  50 S12G20    29.88F
$$
MIZ004>006-011>014-085-060400-
CENTRAL UPPER MICHIGAN

CITY           SKY/WX    TMP DP  RH WIND       PRES   REMARKS
MANISTIQUE     CLEAR     44  38  80 CALM      29.92F
ESCANABA       CLEAR     43  36  75 CALM      29.93R
MENOMINEE      CLEAR     48  39  71 CALM      29.94R
SAWYER-GWINN   LGT RAIN  52  38  59 S9        29.89S
$$
MIZ001>003-009>011-084-060400-
WESTERN UPPER MICHIGAN

CITY           SKY/WX    TMP DP  RH WIND       PRES   REMARKS
IRON MOUNTAIN  CLOUDY    55  39  54 SE5       29.90R
HOUGHTON       PTCLDY    47  28  47 NE3       29.84F
COPPER HARBOR    N/A     48  30  49 SW16G26   29.81F
IRONWOOD         N/A     63  39  42 S9        29.83S
$$

ABBREVIATIONS USED IN REMARKS
   TC - TEMPERATURE IN CELSIUS
  WCI - WIND CHILL INDEX
   HX - HEAT INDEX
  VSB - VISIBILITY




USA.gov is the U.S. government's official web portal to all federal, state and local government web resources and services.